Weather History for Telfer, WE

Change the Weather History Date:

Saturday, October 19, 2013

  Actual Average Record
Temperature  
Mean Temperature 93 °F -  
Max Temperature 106 °F - - ()
Min Temperature 80 °F - - ()
Cooling Degree Days 28    
Growing Degree Days 43 (Base 50)    
Moisture  
Dew Point 42 °F    
Average Humidity 14    
Maximum Humidity 27    
Minimum Humidity 5    
Precipitation  
Precipitation 0.00 in - - ()
Sea Level Pressure  
Sea Level Pressure 29.80 in    
Wind  
Wind Speed 10 mph ()    
Max Wind Speed 25 mph    
Max Gust Speed 37 mph    
T = Trace of Precipitation, MM = Missing Value Source: Averaged Metar Reports

Daily Weather History Graph

Daily Weather History Graph

Search for Another Location

Airport:

Trip Planner

Search our weather history database for the weather conditions in past years. The results will help you decide how hot, cold, wet, or windy it might be!

Date:

Astronomy

Oct. 19, 2013 Rise Set
Actual Time 5:16 AM AWST 5:55 PM AWST
Civil Twilight 4:53 AM AWST 6:18 PM AWST
Nautical Twilight 4:27 AM AWST 6:45 PM AWST
Astronomical Twilight 4:00 AM AWST 7:12 PM AWST
Moon 6:15 PM AWST (10/19) 5:11 AM AWST (10/19)
Length of Visible Light 13h 24m
Length of Day
12h 39m
Full, 100% of the Moon is Illuminated
Oct 19
Full
Oct 27
Last Quarter
Nov 3
New
Nov 10
First Quarter
Nov 17
Full

Hourly Weather History & Observations

Time (AWST) Temp. Dew Point Humidity Pressure Visibility Wind Dir Wind Speed Gust Speed Precip Events Conditions
12:00 AM 87 °F 39 °F 10% 29.81 in - West 8.1 mph - -  
12:00 AM 86.0 °F 39.2 °F 19% 29.86 in - West 8.1 mph - N/A   Unknown
1:00 AM 86.0 °F 39.2 °F 19% 29.83 in - SW 6.9 mph - N/A   Unknown
2:00 AM 89 °F 42 °F 11% 29.77 in - West 15.0 mph - -  
2:00 AM 87.8 °F 42.8 °F 21% 29.83 in - West 15.0 mph - N/A   Unknown
3:00 AM 89 °F 48 °F 15% 29.77 in - WSW 11.5 mph - -  
3:00 AM 87.8 °F 48.2 °F 25% 29.83 in - WSW 11.5 mph - N/A   Unknown
4:04 AM 91.4 °F 48.2 °F 23% 29.80 in - SW 25.3 mph 36.8 mph N/A   Unknown
5:00 AM 88 °F 47 °F 15% 29.78 in - SW 13.8 mph - -  
5:00 AM 87.8 °F 46.4 °F 24% 29.83 in - SW 13.8 mph - N/A   Unknown
6:00 AM 86 °F 47 °F 17% 29.81 in - SW 10.4 mph - -  
6:00 AM 86.0 °F 48.2 °F 27% 29.86 in - SW 10.4 mph - N/A   Unknown
7:00 AM 87.8 °F 46.4 °F 24% 29.89 in - SSW 9.2 mph - N/A   Unknown
8:00 AM 92 °F 47 °F 13% 29.84 in - SSE 11.5 mph - -  
8:00 AM 93.2 °F 46.4 °F 20% 29.89 in - SSE 11.5 mph - N/A   Unknown
9:00 AM 97 °F 43 °F 9% 29.85 in - SSE 15.0 mph - -  
9:00 AM 96.8 °F 42.8 °F 16% 29.89 in - SSE 15.0 mph - N/A   Unknown
10:00 AM 98.6 °F 42.8 °F 15% 29.89 in - SSE 16.1 mph - N/A   Unknown
11:00 AM 101 °F 43 °F 7% 29.81 in - SSE 12.7 mph - -  
11:00 AM 100.4 °F 42.8 °F 14% 29.86 in - SSE 12.7 mph - N/A   Unknown
12:00 PM 103 °F 38 °F 5% 29.78 in - South 5.8 mph - -  
12:00 PM 102.2 °F 37.4 °F 11% 29.83 in - South 5.8 mph - N/A   Unknown
1:00 PM 102.2 °F 39.2 °F 11% 29.80 in - SW 11.5 mph - N/A   Unknown
2:00 PM 103 °F 39 °F 5% 29.73 in - South 6.9 mph - -  
2:00 PM 104.0 °F 39.2 °F 11% 29.77 in - South 6.9 mph - N/A   Unknown
3:00 PM 105 °F 40 °F 5% 29.71 in - West 12.7 mph - -  
3:00 PM 105.8 °F 39.2 °F 10% 29.74 in - West 12.7 mph - N/A   Unknown
4:00 PM 102.2 °F 37.4 °F 11% 29.74 in - West 13.8 mph - N/A   Unknown
5:00 PM 101 °F 39 °F 6% 29.71 in - WSW 13.8 mph - -  
5:00 PM 100.4 °F 39.2 °F 12% 29.77 in - WSW 13.8 mph - N/A   Unknown
6:00 PM 98 °F 39 °F 7% 29.73 in - West 10.4 mph - -  
6:00 PM 98.6 °F 39.2 °F 13% 29.77 in - West 10.4 mph - N/A   Unknown
7:00 PM 96.8 °F 37.4 °F 13% 29.80 in - SSW 10.4 mph - N/A   Unknown
8:00 PM 95 °F 38 °F 7% 29.76 in - SW 8.1 mph - -  
8:00 PM 95.0 °F 37.4 °F 13% 29.80 in - SW 8.1 mph - N/A   Unknown
9:00 PM 92 °F 38 °F 8% 29.77 in - WSW 4.6 mph - -  
9:00 PM 91.4 °F 37.4 °F 15% 29.83 in - WSW 4.6 mph - N/A   Unknown
10:00 PM 91.4 °F 37.4 °F 15% 29.80 in - SW 5.8 mph - N/A   Unknown
11:00 PM 85 °F 42 °F 13% 29.77 in - North 5.8 mph - -  
11:00 PM 84.2 °F 41.0 °F 22% 29.83 in - North 5.8 mph - N/A   Unknown